Skip Page Navigation
NASA JPL Caltech
NASA Logo - Jet Propulsion Laboratory + View the NASA Portal
+ Center for Near-Earth Object Studies
JPL Home Earth Solar System Stars & Galaxies Technology
JPL Solar System Dynamics
BODIES ORBITS EPHEMERIDES TOOLS PHYSICAL DATA DISCOVERY FAQ SITE MAP
JPL Small-Body Database Browser
Search: [ help ]  
5698 Nolde (4121 T-1)
Classification: Main-belt Asteroid          SPK-ID: 2005698
Ephemeris | Orbit Diagram | Orbital Elements | Mission Design | Physical Parameters | Discovery Circumstances | Close-Approach Data ]

[ show orbit diagram ]
Orbital Elements at Epoch 2459200.5 (2020-Dec-17.0) TDB
Reference: JPL 42 (heliocentric ecliptic J2000)
 Element Value Uncertainty (1-sigma)   Units 
e .1111998670386783 1.0238e-08  
a 3.119307064806935 1.3221e-08 au
q 2.772440533947594 3.0764e-08 au
i 1.552963056557836 2.0447e-07 deg
node 74.10950270897294 3.3928e-05 deg
peri 157.8706892315059 3.6212e-05 deg
M 344.0784889356108 9.7265e-06 deg
tp 2459289.495367820739
(2021-Mar-15.99536782)
5.4385e-05 TDB
period 2012.267069745941
5.51
1.2793e-05
3.503e-08
d
yr
n .1789026940869493 1.1374e-09 deg/d
Q 3.466173595666275 1.4691e-08 au
  Orbit Determination Parameters
   # obs. used (total)      2749  
   data-arc span      18261 days (50.00 yr)  
   first obs. used      1971-03-24  
   last obs. used      2021-03-22  
   planetary ephem.      DE441  
   SB-pert. ephem.      SB441-N16  
   condition code      0  
   norm. resid. RMS      .473  
   source      ORB  
   producer      Otto Matic  
   solution date      2021-May-03 22:26:20  

Additional Information
 Earth MOID = 1.76039 au 
 Jupiter MOID = 1.52189 au 
 T_jup = 3.206 
[ hide covariance matrix ]
Orbital Elements at Epoch 2456739.5 (2014-Mar-23.0) TDB
Reference: JPL 42 (heliocentric ecliptic J2000)
 Element Value Uncertainty (1-sigma)   Units 
e .1119826346994407 1.0404e-08  
q 2.774836372544982 3.113e-08 au
tp 2457267.570318911689
(2015-Sep-02.07031891)
5.4769e-05 TDB
node 74.15898621375605 3.387e-05 deg
peri 156.2658142327424 3.6109e-05 deg
i 1.553774240156086 2.0455e-07 deg
  Orbit Determination Parameters
   # obs. used (total)      2749  
   data-arc span      18261 days (50.00 yr)  
   first obs. used      1971-03-24  
   last obs. used      2021-03-22  
   planetary ephem.      DE441  
   SB-pert. ephem.      SB441-N16  
   condition code      0  
   norm. resid. RMS      .473  
   source      ORB  
   producer      Otto Matic  
   solution date      2021-May-03 22:26:20  

Additional Information
 Jupiter MOID = 1.52189 au 
 T_jup = 3.206 
Orbit Covariance (6×6)
  e q tp node peri i
e 1.082370949973584E-16 -3.021901903536293E-16 -1.414377544755734E-13 1.179908462753594E-15 -2.875090307463342E-14 -8.381354625549723E-16
q -3.021901903536293E-16 9.690913101283965E-16 3.282529643407986E-13 -8.639999612598929E-16 6.237926198257506E-14 2.50498456494153E-15
tp -1.414377544755734E-13 3.282529643407986E-13 2.999689195529367E-9 -6.389815422442049E-11 6.910447971564091E-10 2.25987599327456E-12
node 1.179908462753594E-15 -8.639999612598929E-16 -6.389815422442049E-11 1.147172194017746E-9 -1.159636037760096E-9 -1.318083890295432E-12
peri -2.875090307463342E-14 6.237926198257506E-14 6.910447971564091E-10 -1.159636037760096E-9 1.30385847304313E-9 1.831108788833632E-12
i -8.381354625549723E-16 2.50498456494153E-15 2.25987599327456E-12 -1.318083890295432E-12 1.831108788833632E-12 4.183870697968346E-14

Ephemeris | Orbit Diagram | Orbital Elements | Mission Design | Physical Parameters | Discovery Circumstances | Close-Approach Data ]

Physical Parameter Table
Parameter Symbol Value Units Sigma Reference Notes
absolute magnitude H 12.71   n/a MPCxxxxx  
diameter diameter 16.690 km 0.097 urn:nasa:pds:neowise_diameters_albedos::2.0[mainbelt] (http://adsabs.harvard.edu/abs/2011ApJ...741...68M)  
geometric albedo albedo 0.048   0.008 urn:nasa:pds:neowise_diameters_albedos::2.0[mainbelt] (http://adsabs.harvard.edu/abs/2012ApJ...759L...8M)  

5698 Nolde (4121 T-1)          Discovered 1971-Mar-26 by van Houten and Gehrels at Palomar
Reference: DISCOVERY.DBLast Updated: 2003-08-29

[ show close-approach data ]
Alternate Designations
 4121 T-1 = 1977 KP1 = 1978 RT8 = 1985 YX1 = 1990 WA3 
Ephemeris | Orbit Diagram | Orbital Elements | Mission Design | Physical Parameters | Discovery Circumstances | Close-Approach Data ]
ABOUT SSD CREDITS/AWARDS PRIVACY/COPYRIGHT GLOSSARY LINKS
FirstGov 2021-May-07 14:23 UT
(server date/time)  
NASA Home Page
Site Manager:   Ryan S. Park
Webmaster  Alan B. Chamberlin